Weather Roundup
Issued by NWS

Home | Current Version | Previous Version | Graphics & Text | Print | Product List | Glossary Off
Versions: 1 2 3 4 5 6 7 8 9 10 11 12 13 14 15 16 17 18 19 20 21 22 23 24 25 26 27 28 29 30 31 32 33 34 35 36 37 38 39 40 41 42 43 44 45 46 47 48 49 50

000
NZUS93 KARX 061259
HRRWXR

CURRENT HOURLY OBSERVATIONS ACROSS
MUCH OF THE UPPER MISSISSIPPI VALLEY
NATIONAL WEATHER SERVICE LA CROSSE WI
700 AM CST FRI MAR 06 2015


...SOUTHEAST MINNESOTA...


CITY           SKY/WX    TMP DP  RH WIND       PRES   REMARKS
ROCHESTER      CLEAR      8   1  73 S17G25    30.11F WCI -10
ROCHESTER/MAYO FAIR      11   1  63 S9G16     30.12F WCI  -1
WINONA         CLEAR     12   3  67 SE3       30.19F
AUSTIN         CLEAR      9   1  72 S10       30.12F WCI  -6
ALBERT LEA     CLEAR     10   3  72 S6        30.11F WCI   1
DODGE CENTER   PTCLDY    10   3  72 S15       30.08F WCI  -6
PRESTON        CLEAR      8   1  75 S21G26    30.13F WCI -12
OWATONNA       CLEAR      9   1  72 S7        30.10F WCI  -3
FARIBAULT      CLEAR      9   1  72 S7        30.10F WCI  -3
$$

...ELSEWHERE IN MINNESOTA...


CITY           SKY/WX    TMP DP  RH WIND       PRES   REMARKS
MINNEAPOLIS    MOCLDY    14   4  64 S7        30.08F WCI   4
INTNL FALLS    CLEAR     11   4  73 W8        29.88R WCI  -1
DULUTH         PTCLDY    10   2  69 W15       29.93S WCI  -7
RED WING       CLEAR     10   0  61 S5        30.12F WCI   2
REDWOOD FALLS  CLEAR     16   9  74 SW5       30.05F WCI   9
MANKATO        CLEAR     12   1  62 S9        30.08F WCI   0
FAIRMONT       CLEAR     16   9  73 S12       30.07F WCI   3
$$

...SOUTHWEST WISCONSIN...


CITY           SKY/WX    TMP DP  RH WIND       PRES   REMARKS
LA CROSSE      MOCLDY     8  -1  66 S9        30.21F WCI  -5
PRAIRIE DU CHI CLOUDY     8  -2  66 E8        30.26F WCI  -5
BOSCOBEL       CLOUDY    -3  -9  75 CALM      30.28F
LONE ROCK      NOT AVBL
PLATTEVILLE    PTCLDY     4  -2  76 SE10      30.29F WCI -12
FORT MC COY    PTCLDY     8  -1  66 CALM      30.22F
VIROQUA        PTSUNNY    5  -2  75 S12       30.18F WCI -11
WIS DELLS      NOT AVBL
$$

...ELSEWHERE IN WISCONSIN...


CITY           SKY/WX    TMP DP  RH WIND       PRES   REMARKS
MILWAUKEE      MOCLDY     2  -7  66 SW14      30.37F WCI -16
MADISON        PTCLDY     3  -5  69 S8        30.31F WCI -10
GREEN BAY      PTCLDY     2  -5  72 S12       30.26F WCI -15
EAU CLAIRE     NOT AVBL
BLACK RVR FLS  FAIR       6  -2  68 CALM      30.18F
MEDFORD        CLOUDY     5  -3  71 S12G17    30.10F WCI -11
WAUSAU         PTCLDY    -1  -5  82 S9        30.14F WCI -16
WIS RAPIDS     PTCLDY     0  -7  72 S7        30.20F WCI -13
MARSHFIELD     CLOUDY     1  -5  75 S12       30.14F WCI -16
RICE LAKE      CLOUDY     7   0  71 SE6       30.09F WCI  -3
$$

...NORTHEAST IOWA...


CITY           SKY/WX    TMP DP  RH WIND       PRES   REMARKS
DECORAH        MOCLDY    12   1  62 S10G18    30.18S WCI  -1
MASON CITY     PTCLDY    11   5  77 S9        30.14F WCI  -2
CHARLES CITY   CLEAR     10   3  72 S15       30.17F WCI  -6
OELWEIN        CLOUDY    10   3  72 S17       30.21F WCI  -7
$$

...ELSEWHERE IN IOWA...


CITY           SKY/WX    TMP DP  RH WIND       PRES   REMARKS
DES MOINES     PTCLDY    22  12  65 S12       30.20F WCI  10
IOWA CITY      PTCLDY    11   4  73 SE8       30.31F WCI  -1
FORT DODGE     PTCLDY    18  10  73 S10       30.15F WCI   6
$$

...NORTHERN ILLINOIS...


CITY           SKY/WX    TMP DP  RH WIND       PRES   REMARKS
CHICAGO-OHARE  MOCLDY     6  -1  73 SW12      30.42F WCI  -9
CHICAGO-MIDWAY MOCLDY     7   0  73 S9        30.45F WCI  -7
MOLINE         CLEAR      9   0  67 S12       30.36F WCI  -6
ROCKFORD       MOCLDY    -1  -7  75 S9        30.40F WCI -16
PEORIA         PTCLDY     7   0  73 S12       30.46F WCI  -8
$$

NOTE: "FAIR" INDICATES FEW OR NO CLOUDS BELOW 12,000 FEET WITH NO
SIGNIFICANT WEATHER AND/OR OBSTRUCTIONS TO VISIBILITY. WIND
SPEEDS ARE IN MILES-PER-HOUR.



USA.gov is the U.S. government's official web portal to all federal, state and local government web resources and services.